CW8490 Weather Reports


Display with metric or nautical units.
time (UTC)temp
F
wind
direction
speed
MPH
gust
MPH
rain 1hr
in
rain 24hr
in
rain mn
in
humidity
%
barometer
mb
20260510095917 58 45 2.0 5.0 0.00 0.00 0.00 54 1016.5
20260510094917 58 23 2.0 4.0 0.00 0.00 0.00 56 1016.6
20260510093937 59 45 1.0 3.0 0.00 0.01 0.00 57 1016.7
20260510092917 59 23 4.0 5.0 0.00 0.01 0.00 57 1016.4
20260510091917 59 23 4.0 5.0 0.00 0.01 0.00 58 1016.3
20260510090917 59 23 2.0 3.0 0.00 0.01 0.00 58 1016.3
20260510085917 60 23 3.0 4.0 0.00 0.01 0.00 60 1016.3
20260510084917 60 45 2.0 3.0 0.00 0.01 0.00 62 1016.1
20260510083937 60 23 4.0 6.0 0.00 0.01 0.00 64 1015.9
20260510082917 61 0 4.0 5.0 0.00 0.01 0.00 67 1015.9
20260510081917 61 23 5.0 7.0 0.00 0.01 0.00 67 1015.6
20260510080957 61 23 3.0 3.0 0.00 0.01 0.00 69 1015.8
20260510075917 61 0 3.0 4.0 0.00 0.01 0.00 70 1015.6
20260510074917 62 23 2.0 3.0 0.00 0.01 0.00 70 1015.3
20260510073917 61 23 2.0 3.0 0.00 0.01 0.00 71 1015.2
20260510072917 62 0.0 0.0 0.00 0.01 0.00 70 1015.1
20260510071917 62 0.0 0.0 0.00 0.01 0.00 70 1014.7
20260510070917 62 0.0 0.0 0.00 0.01 0.00 69 1014.7
20260510065937 62 0.0 0.0 0.00 0.01 0.00 69 1014.4
20260510064917 62 23 1.0 2.0 0.00 0.01 0.00 68 1014.5
20260510063917 62 90 1.0 2.0 0.00 0.01 0.00 66 1014.2
20260510062917 62 0.0 0.0 0.00 0.01 0.00 69 1014.4
20260510061917 63 0.0 0.0 0.00 0.01 0.00 68 1014.8
20260510060917 64 0.0 0.0 0.00 0.01 0.00 64 1014.7
20260510055917 64 0.0 0.0 0.00 0.01 0.00 65 1014.3
20260510054937 64 68 1.0 3.0 0.00 0.01 0.00 61 1014.1
20260510053917 65 113 2.0 2.0 0.00 0.01 0.00 64 1014.2
20260510052937 65 315 1.0 2.0 0.00 0.01 0.00 59 1014.2
20260510051937 66 90 1.0 1.0 0.00 0.01 0.00 57 1014.0
20260510050917 65 90 2.0 4.0 0.00 0.01 0.00 58 1013.7
20260510045916 65 113 1.0 2.0 0.00 0.02 0.02 60 1013.1
20260510044916 66 0.0 1.0 0.00 0.02 0.02 61 1012.8
20260510043916 66 68 2.0 3.0 0.00 0.02 0.02 59 1012.4
20260510042936 67 45 3.0 4.0 0.00 0.02 0.02 61 1012.4
20260510041916 67 23 4.0 5.0 0.00 0.02 0.02 60 1012.2
20260510040916 67 45 3.0 4.0 0.00 0.02 0.02 62 1012.4
20260510035916 68 23 5.0 6.0 0.00 0.02 0.02 63 1012.3
20260510034956 67 23 4.0 4.0 0.00 0.02 0.02 65 1012.0
20260510033916 66 23 6.0 6.0 0.00 0.02 0.02 69 1012.4
20260510032916 66 0.0 0.0 0.00 0.02 0.02 68 1012.3
20260510031916 66 0.0 0.0 0.00 0.02 0.02 66 1011.8
20260510030916 66 0.0 1.0 0.00 0.02 0.02 66 1011.5
20260510025936 66 0.0 0.0 0.00 0.02 0.02 66 1011.3
20260510024916 66 0.0 0.0 0.00 0.02 0.02 65 1011.1
20260510023956 66 0.0 0.0 0.00 0.02 0.02 65 1010.8
20260510022916 67 0.0 0.0 0.00 0.02 0.02 63 1010.5
20260510021942 69 0.0 0.0 0.00 0.02 0.02 60 1010.5
20260510021416 69 23 1.0 2.0 0.00 0.02 0.02 59 1010.3
20260510020416 70 23 2.0 3.0 0.00 0.02 0.02 59 1010.1
20260510015416 70 0 2.0 3.0 0.00 0.02 0.02 58 1010.0
20260510014436 70 0 2.0 2.0 0.00 0.02 0.02 56 1009.7
20260510013416 71 23 3.0 4.0 0.00 0.02 0.02 56 1009.6
20260510012416 70 0 5.0 7.0 0.00 0.02 0.02 58 1009.2
20260510011456 71 23 2.0 3.0 0.00 0.02 0.02 56 1009.4
20260510010437 72 23 2.0 3.0 0.00 0.02 0.02 55 1009.2
20260510005416 73 0 3.0 4.0 0.00 0.02 0.02 53 1008.9
20260510004416 74 0 4.0 5.0 0.00 0.02 0.02 51 1008.8
20260510003416 74 0 4.0 5.0 0.00 0.02 0.02 51 1008.7
20260510002416 75 23 3.0 4.0 0.00 0.02 0.02 50 1008.3
20260510001417 75 0 3.0 5.0 0.00 0.02 0.02 51 1008.2
20260510000418 76 0 2.0 3.0 0.00 0.02 0.02 50 1008.1
20260509235416 76 0 3.0 5.0 0.00 0.02 0.02 50 1007.9
20260509234436 76 0 3.0 5.0 0.00 0.02 0.02 48 1007.9
20260509233436 78 23 4.0 5.0 0.00 0.02 0.02 47 1007.8
20260509232417 79 0.0 1.0 0.00 0.02 0.02 47 1007.5
20260509231416 79 0.0 1.0 0.00 0.02 0.02 48 1007.5
20260509230417 80 270 1.0 3.0 0.00 0.02 0.02 46 1007.4
20260509225416 80 248 2.0 3.0 0.00 0.02 0.02 45 1007.4
20260509224417 81 270 4.0 6.0 0.00 0.02 0.02 44 1007.3
20260509223436 81 293 2.0 2.0 0.00 0.02 0.02 43 1007.3
20260509222417 81 270 2.0 3.0 0.00 0.02 0.02 43 1007.3
20260509221417 81 293 4.0 6.0 0.00 0.02 0.02 42 1007.3
20260509220417 82 293 1.0 2.0 0.00 0.02 0.02 42 1007.4
20260509215417 83 293 5.0 9.0 0.00 0.03 0.02 38 1007.3
20260509214436 83 270 6.0 8.0 0.00 0.03 0.02 40 1007.3
20260509213417 83 315 8.0 13.0 0.00 0.04 0.02 39 1007.3
20260509212417 83 293 4.0 7.0 0.00 0.04 0.02 42 1007.3
20260509211416 82 203 3.0 6.0 0.00 0.04 0.02 48 1007.4
20260509210417 82 203 4.0 8.0 0.00 0.04 0.02 46 1007.4
20260509205417 82 293 5.0 7.0 0.00 0.04 0.02 45 1007.5
20260509204417 82 293 4.0 6.0 0.00 0.04 0.02 44 1007.8
20260509203417 82 270 2.0 3.0 0.00 0.04 0.02 48 1007.8
20260509202417 81 270 2.0 4.0 0.00 0.04 0.02 45 1007.8
20260509201417 0 0.0 0.0 0.00 0.04 0.02
20260509200417 0 0.0 0.0 0.00 0.04 0.02
20260509195444 82 0.0 0.0 0.00 0.04 0.02 49 1008.1
20260509195321 82 338 1.0 1.0 0.00 0.04 0.02 49 1008.2
20260509194317 81 315 5.0 6.0 0.00 0.04 0.02 51 1008.3
20260509193317 81 270 5.0 8.0 0.00 0.04 0.02 48 1008.3
20260509192317 81 293 6.0 9.0 0.00 0.04 0.02 49 1008.2
20260509191317 81 293 7.0 9.0 0.00 0.04 0.02 52 1008.4
20260509190337 81 270 3.0 5.0 0.00 0.04 0.02 49 1008.5
20260509185317 81 248 4.0 7.0 0.00 0.04 0.02 53 1008.6
20260509184317 81 270 2.0 4.0 0.00 0.04 0.02 48 1008.7
20260509183317 81 293 2.0 5.0 0.00 0.04 0.02 51 1008.8
20260509182317 81 270 3.0 6.0 0.00 0.04 0.02 55 1009.0
20260509181317 80 225 5.0 10.0 0.00 0.04 0.02 55 1009.0
20260509180317 80 270 2.0 7.0 0.00 0.04 0.02 53 1009.1
20260509175317 78 293 1.0 3.0 0.00 0.04 0.02 52 1009.1
20260509174317 78 270 6.0 10.0 0.00 0.04 0.02 53 1009.1
20260509173317 78 248 2.0 4.0 0.00 0.04 0.02 53 1009.2
20260509172317 77 270 2.0 3.0 0.00 0.04 0.02 53 1009.4
20260509171317 77 270 4.0 7.0 0.00 0.04 0.02 52 1009.5
20260509170317 77 248 3.0 6.0 0.00 0.04 0.02 52 1009.6
20260509165359 76 293 3.0 3.0 0.00 0.04 0.02 55 1009.5
20260509165242 76 0.0 0.0 0.00 0.04 0.02 54 1009.5
20260509165126 76 0.0 0.0 0.00 0.04 0.02 54 1009.6
20260509165009 76 270 3.0 3.0 0.00 0.04 0.02 54 1009.6
20260509164017 76 293 4.0 5.0 0.00 0.04 0.02 56 1009.7
20260509163017 75 270 4.0 7.0 0.00 0.04 0.02 54 1009.6
20260509162018 75 248 3.0 4.0 0.00 0.04 0.02 55 1009.4
20260509161017 74 293 2.0 4.0 0.00 0.04 0.02 56 1009.4
20260509160020 74 293 2.0 5.0 0.00 0.04 0.02 57 1009.4
20260509155127 73 0.0 0.0 0.00 0.04 0.02 61 1009.4
20260509154929 73 0.0 0.0 0.00 0.04 0.02 61 1009.3
20260509154732 73 0.0 0.0 0.00 0.04 0.02 61 1009.3
20260509154616 73 270 7.0 10.0 0.00 0.04 0.02 61 1009.4
20260509153617 72 293 2.0 3.0 0.00 0.04 0.02 64 1009.1
20260509152637 71 293 4.0 7.0 0.00 0.04 0.02 60 1009.2
20260509151617 71 315 2.0 4.0 0.00 0.04 0.02 63 1009.1
20260509150617 70 315 2.0 4.0 0.00 0.04 0.02 66 1009.0
20260509145617 70 270 4.0 6.0 0.00 0.04 0.02 69 1009.0
20260509144700 69 293 6.0 11.0 0.00 0.04 0.02 68 1009.0
20260509144502 68 0.0 0.0 0.00 0.04 0.02 68 1009.0
20260509144341 68 0.0 0.0 0.00 0.04 0.02 68 1009.0
20260509144020 68 270 5.0 10.0 0.00 0.04 0.02 67 1009.1
20260509143020 67 293 4.0 7.0 0.00 0.04 0.02 69 1008.9
20260509142020 67 270 4.0 6.0 0.00 0.04 0.02 71 1009.0
20260509141020 66 270 6.0 9.0 0.00 0.04 0.02 73 1009.2
20260509140020 64 293 2.0 6.0 0.00 0.04 0.02 76 1009.1
20260509135020 63 315 2.0 6.0 0.00 0.04 0.02 80 1009.1
20260509134020 62 270 5.0 9.0 0.00 0.04 0.02 79 1009.0
20260509133020 61 293 5.0 8.0 0.00 0.04 0.02 83 1009.0
20260509132020 60 293 2.0 4.0 0.00 0.04 0.02 87 1009.1
20260509131020 58 293 3.0 8.0 0.00 0.04 0.02 96 1009.0
20260509130023 57 0.0 0.0 0.00 0.04 0.02 97 1008.7
20260509125905 57 0.0 0.0 0.00 0.04 0.02 97 1008.7
20260509125759 57 0.0 0.0 0.00 0.04 0.02 97 1008.6
20260509125629 57 0.0 0.0 0.00 0.04 0.02 97 1008.8
20260509125440 57 293 1.0 3.0 0.00 0.04 0.02 97 1008.7
20260509124936 57 293 2.0 3.0 0.00 0.04 0.02 97 1008.9
20260509123936 56 270 1.0 3.0 0.00 0.04 0.02 97 1008.6
20260509122916 56 270 1.0 2.0 0.00 0.04 0.02 97 1008.5
20260509121916 56 0.0 0.0 0.00 0.04 0.02 97 1008.3
20260509120916 54 0.0 0.0 0.00 0.04 0.02 97 1008.1
20260509115916 54 180 1.0 3.0 0.00 0.04 0.02 97 1008.1
20260509114916 52 270 1.0 2.0 0.00 0.04 0.02 97 1008.0
20260509113936 51 0.0 1.0 0.00 0.04 0.02 97 1007.8
20260509112916 51 0.0 0.0 0.00 0.04 0.02 97 1007.5
20260509111916 51 0.0 0.0 0.00 0.04 0.02 97 1007.3
20260509110916 52 0.0 0.0 0.00 0.04 0.02 97 1007.5
20260509105936 52 0.0 1.0 0.00 0.04 0.02 97 1007.4
20260509104916 52 0.0 0.0 0.00 0.04 0.02 97 1007.4
20260509103916 52 0.0 1.0 0.01 0.04 0.02 97 1007.5
20260509102936 52 203 1.0 1.0 0.01 0.04 0.02 97 1007.5
20260509101916 52 0.0 0.0 0.01 0.04 0.02 97 1007.5
20260509100956 52 0.0 1.0 0.01 0.04 0.02 97 1007.6